Home > Time Zones > World Clock > Weather > U.S.A. > Gary > Past weeks

Flag for U.S.A. Weather past 2 weeks in Gary, Indiana, U.S.A.

Now
82 °F

Scattered clouds.


Feels Like: 85 °F
Forecast: 68 / 79 °F
Wind: 9 mph from Northeast

Location: Lansing Municipal Airport

Current Time: Sep 4, 2015 at 4:03:28 PM

Latest Report: Sep 4, 2015 at 3:15 PM


Visibility: 10 mi

Pressure: 30.00 "Hg

Humidity: 66%

Dew point: 69 °F

Location of GaryLocation

Historic Weather in Gary — Graph

°F

Gary temperature yesterday

Maximum temperature yesterday: 90 °F (at 2:55 PM)
Minimum temperature yesterday: 67 °F (at 5:55 AM)
Average temperature yesterday: 79 °F

Past Weeks' High & Low Weather Summary

 TemperatureHumidityPressure
High90 °F (Sep 3, 2:55 PM)100% (Aug 30, 11:15 PM)30.23 "Hg (Aug 30, 11:15 PM)
Low53 °F (Aug 21, 6:15 AM)38% (Aug 20, 6:15 PM)29.86 "Hg (Aug 23, 12:15 PM)
Average69 °F74%30.05 "Hg
* Reported Aug 20 2:15 PM — Sep 4 2:55 PM, Gary, Weather by CustomWeather, © 2015

Note: Actual official high and low records may vary slightly from our data, if they occured in-between our weather recording intervals... More about our weather records

Advertising

Gary weather history for previous 24 hours

 ConditionsComfort  
Time TempWeatherWind HumidityBarometerVisibility
2:55 PM
Fri, Sep 4
82 °FPartly sunny.10 mph64%30.01 "Hg10 mi
2:40 PM83 °FScattered clouds.8 mph64%30.01 "Hg10 mi
2:15 PM82 °FScattered clouds.7 mph65%30.01 "Hg10 mi
1:55 PM82 °FScattered clouds.7 mph65%30.01 "Hg10 mi
1:35 PM84 °FScattered clouds.8 mph62%30.01 "Hg10 mi
1:15 PM84 °FScattered clouds.5 mph62%30.02 "Hg10 mi
12:55 PM83 °FBroken clouds.6 mph63%30.02 "Hg10 mi
12:35 PM83 °FScattered clouds.No wind63%30.02 "Hg10 mi
12:15 PM82 °FScattered clouds.No wind64%30.03 "Hg10 mi
11:55 AM82 °FPartly sunny.No wind67%30.03 "Hg10 mi
11:35 AM81 °FBroken clouds.No wind67%30.04 "Hg10 mi
11:15 AM80 °FScattered clouds.No wind68%30.04 "Hg10 mi
10:55 AM80 °FScattered clouds.No wind68%30.03 "Hg10 mi
10:35 AM79 °FSunny.3 mph70%30.03 "Hg10 mi
10:15 AM78 °FSunny.No wind72%30.03 "Hg10 mi
9:55 AM77 °FSunny.3 mph75%30.03 "Hg10 mi
9:35 AM76 °FSunny.No wind77%30.03 "Hg10 mi
9:15 AM75 °FScattered clouds.No wind78%30.02 "Hg10 mi
8:55 AM74 °FScattered clouds.3 mph81%30.02 "Hg10 mi
8:35 AM74 °FScattered clouds.3 mph83%30.02 "Hg7 mi
8:15 AM73 °FScattered clouds.5 mph85%30.02 "Hg10 mi
7:55 AM72 °FScattered clouds.No wind88%30.01 "Hg10 mi
7:35 AM70 °FScattered clouds.No wind95%30.01 "Hg7 mi
7:15 AM68 °FFog.No wind98%30.01 "Hg5 mi
6:55 AM66 °FFog.No wind99%30.00 "Hg4 mi
6:35 AM65 °FFog.No wind98%30.00 "Hg4 mi
6:15 AM65 °FFog.3 mph98%29.99 "Hg5 mi
5:55 AM66 °FClear.No wind97%29.99 "Hg10 mi
5:35 AM67 °FClear.No wind95%29.98 "Hg10 mi
5:15 AM68 °FClear.No wind94%29.98 "Hg10 mi
4:55 AM67 °FClear.No wind98%29.98 "Hg10 mi
4:35 AM67 °FClear.No wind96%29.97 "Hg10 mi
4:15 AM67 °FClear.No wind95%29.98 "Hg10 mi
3:55 AM68 °FClear.No wind94%29.97 "Hg10 mi
3:35 AM69 °FClear.No wind89%29.97 "Hg10 mi
3:15 AM70 °FClear.No wind89%29.96 "Hg10 mi
2:55 AM70 °FClear.No wind88%29.96 "Hg10 mi
2:35 AM70 °FClear.No wind88%29.96 "Hg10 mi
2:15 AM71 °FPassing clouds.3 mph87%29.96 "Hg10 mi
1:55 AM71 °FOvercast.5 mph87%29.96 "Hg10 mi
1:35 AM71 °FMostly cloudy.5 mph88%29.97 "Hg10 mi
1:15 AM71 °FPassing clouds.5 mph88%29.97 "Hg10 mi
12:55 AM70 °FClear.5 mph90%29.97 "Hg10 mi
12:35 AM71 °FClear.6 mph88%29.97 "Hg10 mi
12:15 AM71 °FClear.5 mph88%29.96 "Hg10 mi
11:55 PM
Thu, Sep 3
71 °FClear.7 mph88%29.96 "Hg10 mi
11:35 PM72 °FClear.7 mph86%29.96 "Hg10 mi
11:15 PM72 °FPassing clouds.7 mph86%29.96 "Hg10 mi
10:55 PM72 °FPassing clouds.5 mph86%29.96 "Hg10 mi
10:35 PM72 °FClear.6 mph84%29.96 "Hg10 mi
10:15 PM73 °FClear.7 mph84%29.94 "Hg10 mi
9:55 PM73 °FClear.3 mph86%29.93 "Hg7 mi
9:15 PM74 °FClear.10 mph87%29.93 "Hg7 mi
8:55 PM75 °FPassing clouds.8 mph86%29.93 "Hg7 mi
8:35 PM79 °FPassing clouds.7 mph73%29.92 "Hg10 mi
8:15 PM81 °FPassing clouds.3 mph66%29.91 "Hg10 mi
7:55 PM82 °FClear.3 mph63%29.90 "Hg10 mi
7:35 PM83 °FPassing clouds.6 mph60%29.89 "Hg10 mi
7:15 PM84 °FScattered clouds.6 mph58%29.90 "Hg10 mi
6:55 PM85 °FScattered clouds.6 mph55%29.89 "Hg10 mi
6:35 PM86 °FSunny.7 mph53%29.89 "Hg10 mi
6:15 PM87 °FScattered clouds.10 mph52%29.89 "Hg10 mi
5:55 PM88 °FScattered clouds.9 mph49%29.89 "Hg10 mi
5:15 PM89 °FSunny.13 mph47%29.89 "Hg10 mi
4:35 PM89 °FScattered clouds.14 mph45%29.89 "Hg10 mi
4:15 PM89 °FScattered clouds.10 mph47%29.90 "Hg10 mi
Weather by CustomWeather, © 2015

See weather overviewHow to use our weather pages